QPF
0.00 0.00 0.00 0.00 0.00 0.01 0.02 0.01 0.01 0.00 0.00 0.00 0.00 0.00 0.00 0.00 0.00 0.00 0.00 0.00 0.00 0.00 0.00 0.01 0.01 0.02 0.02 0.01 0.01 0.01 0.01 0.01 0.01 0.01 0.01 0.01 0.01 0.01 0.01 0.01 0.01 0.01 0.00
0.00 0.00 0.00 0.00 0.00 0.00 0.01 0.01 0.01 0.01 0.00 0.00 0.00 0.00 0.00 0.00 0.00 0.00 0.00 0.00 0.00 0.00 0.00 0.00 0.01 0.01 0.01 0.01 0.00 0.00 0.00 0.01 0.01 0.01 0.02 0.02 0.01 0.01 0.01 0.01 0.01 0.00 0.01
0.00 0.00 0.00 0.00 0.00 0.00 0.01 0.01 0.01 0.01 0.00 0.00 0.00 0.00 0.00 0.00 0.00 0.00 0.00 0.00 0.00 0.00 0.00 0.00 0.00 0.00 0.00 0.00 0.00 0.00 0.01 0.01 0.02 0.02 0.03 0.04 0.02 0.01 0.01 0.01 0.00 0.00 0.01
0.00 0.00 0.00 0.00 0.00 0.00 0.00 0.00 0.01 0.00 0.00 0.00 0.00 0.00 0.00 0.00 0.00 0.00 0.00 0.00 0.00 0.00 0.00 0.00 0.00 0.00 0.00 0.00 0.00 0.00 0.01 0.01 0.01 0.01 0.02 0.02 0.03 0.02 0.02 0.01 0.01 0.01 0.01
0.00 0.00 0.00 0.00 0.00 0.00 0.00 0.00 0.00 0.00 0.00 0.00 0.00 0.00 0.00 0.00 0.00 0.00 0.00 0.00 0.00 0.00 0.00 0.00 0.00 0.00 0.00 0.00 0.00 0.01 0.01 0.01 0.01 0.01 0.01 0.02 0.05 0.04 0.03 0.02 0.01 0.01 0.01
0.00 0.00 0.00 0.00 0.00 0.00 0.00 0.00 0.00 0.00 0.00 0.00 0.00 0.00 0.00 0.00 0.00 0.00 0.00 0.00 0.00 0.00 0.00 0.00 0.00 0.00 0.00 0.00 0.00 0.01 0.01 0.01 0.01 0.00 0.00 0.01 0.02 0.03 0.04 0.04 0.03 0.03 0.03
0.00 0.00 0.00 0.00 0.00 0.00 0.00 0.00 0.00 0.00 0.00 0.00 0.00 0.00 0.00 0.00 0.00 0.00 0.00 0.00 0.00 0.00 0.00 0.00 0.00 0.00 0.00 0.00 0.01 0.01 0.02 0.01 0.00 0.01 0.01 0.01 0.02 0.03 0.04 0.05 0.05 0.05 0.06
0.00 0.00 0.00 0.00 0.00 0.00 0.00 0.00 0.00 0.01 0.01 0.01 0.00 0.00 0.00 0.01 0.01 0.01 0.01 0.01 0.01 0.01 0.00 0.00 0.00 0.00 0.00 0.00 0.01 0.01 0.02 0.02 0.00 0.00 0.01 0.01 0.01 0.02 0.04 0.05 0.06 0.05 0.05
0.00 0.00 0.00 0.00 0.00 0.00 0.00 0.00 0.01 0.01 0.01 0.01 0.00 0.01 0.01 0.01 0.01 0.01 0.01 0.01 0.01 0.01 0.00 0.00 0.00 0.00 0.00 0.00 0.01 0.01 0.01 0.01 0.00 0.00 0.01 0.01 0.02 0.03 0.05 0.07 0.06 0.06 0.05
0.01 0.01 0.01 0.01 0.00 0.00 0.00 0.03 0.04 0.05 0.05 0.03 0.02 0.01 0.01 0.01 0.01 0.01 0.01 0.01 0.01 0.01 0.00 0.00 0.00 0.00 0.00 0.00 0.01 0.01 0.01 0.01 0.00 0.00 0.00 0.01 0.02 0.03 0.06 0.07 0.07 0.06 0.05
0.02 0.02 0.02 0.02 0.01 0.01 0.01 0.03 0.05 0.09 0.08 0.06 0.06 0.04 0.03 0.01 0.01 0.01 0.00 0.00 0.01 0.01 0.00 0.00 0.00 0.00 0.00 0.00 0.00 0.00 0.00 0.00 0.00 0.00 0.00 0.01 0.02 0.04 0.07 0.08 0.07 0.07 0.06
0.03 0.02 0.02 0.04 0.05 0.04 0.03 0.04 0.07 0.08 0.10 0.07 0.11 0.08 0.04 0.04 0.04 0.02 0.01 0.01 0.01 0.01 0.01 0.01 0.00 0.00 0.00 0.00 0.00 0.00 0.00 0.00 0.00 0.00 0.00 0.00 0.01 0.04 0.06 0.06 0.07 0.07 0.06
0.02 0.02 0.02 0.04 0.06 0.06 0.07 0.08 0.06 0.05 0.06 0.08 0.10 0.09 0.07 0.07 0.06 0.03 0.02 0.02 0.02 0.02 0.03 0.02 0.01 0.01 0.00 0.00 0.01 0.01 0.00 0.00 0.00 0.00 0.00 0.01 0.01 0.03 0.06 0.07 0.08 0.07 0.08
0.03 0.03 0.03 0.04 0.06 0.08 0.11 0.12 0.10 0.12 0.10 0.08 0.10 0.09 0.10 0.11 0.08 0.05 0.04 0.03 0.04 0.04 0.05 0.03 0.03 0.02 0.01 0.01 0.01 0.01 0.00 0.00 0.01 0.01 0.01 0.01 0.01 0.02 0.06 0.10 0.12 0.10 0.10
0.04 0.04 0.05 0.08 0.10 0.11 0.15 0.17 0.17 0.21 0.25 0.24 0.22 0.16 0.14 0.14 0.10 0.08 0.06 0.04 0.05 0.05 0.05 0.04 0.03 0.02 0.02 0.02 0.01 0.01 0.01 0.01 0.01 0.01 0.02 0.02 0.02 0.04 0.06 0.10 0.13 0.13 0.15
0.07 0.08 0.09 0.11 0.12 0.15 0.20 0.22 0.25 0.27 0.32 0.42 0.40 0.26 0.19 0.17 0.13 0.11 0.10 0.10 0.09 0.08 0.07 0.05 0.04 0.04 0.04 0.03 0.03 0.02 0.01 0.01 0.01 0.02 0.04 0.04 0.02 0.03 0.05 0.10 0.13 0.15 0.17
0.08 0.09 0.10 0.12 0.14 0.18 0.23 0.23 0.23 0.31 0.40 0.44 0.42 0.37 0.25 0.19 0.20 0.18 0.17 0.16 0.13 0.09 0.08 0.08 0.07 0.06 0.05 0.04 0.04 0.02 0.02 0.02 0.02 0.01 0.02 0.04 0.04 0.03 0.04 0.06 0.09 0.12 0.14
0.06 0.08 0.12 0.12 0.14 0.19 0.23 0.23 0.26 0.31 0.41 0.42 0.39 0.35 0.29 0.26 0.25 0.26 0.23 0.18 0.14 0.12 0.10 0.10 0.11 0.11 0.09 0.07 0.05 0.02 0.02 0.02 0.01 0.01 0.01 0.02 0.04 0.05 0.05 0.04 0.06 0.08 0.10
0.08 0.09 0.15 0.16 0.17 0.20 0.27 0.32 0.30 0.34 0.43 0.45 0.42 0.36 0.29 0.28 0.27 0.28 0.26 0.19 0.17 0.16 0.14 0.13 0.13 0.11 0.09 0.07 0.05 0.04 0.03 0.02 0.02 0.02 0.02 0.02 0.03 0.04 0.06 0.05 0.04 0.04 0.05
0.09 0.10 0.12 0.17 0.22 0.25 0.27 0.26 0.28 0.32 0.39 0.43 0.43 0.38 0.33 0.33 0.33 0.28 0.26 0.24 0.21 0.19 0.16 0.14 0.12 0.09 0.07 0.07 0.05 0.04 0.03 0.03 0.02 0.02 0.02 0.02 0.02 0.02 0.02 0.04 0.06 0.05 0.04
0.08 0.10 0.15 0.18 0.26 0.32 0.31 0.27 0.28 0.29 0.28 0.29 0.31 0.32 0.28 0.26 0.29 0.29 0.26 0.22 0.20 0.18 0.17 0.15 0.12 0.09 0.08 0.07 0.07 0.05 0.02 0.02 0.02 0.02 0.02 0.02 0.01 0.01 0.01 0.01 0.02 0.03 0.03
0.06 0.07 0.13 0.20 0.24 0.26 0.32 0.33 0.34 0.34 0.31 0.29 0.28 0.26 0.26 0.25 0.24 0.24 0.21 0.19 0.16 0.16 0.15 0.13 0.10 0.08 0.06 0.06 0.08 0.08 0.05 0.03 0.02 0.01 0.01 0.02 0.01 0.01 0.00 0.01 0.01 0.01 0.02
0.04 0.06 0.09 0.17 0.23 0.24 0.30 0.36 0.42 0.41 0.35 0.30 0.27 0.24 0.22 0.21 0.21 0.21 0.20 0.18 0.15 0.13 0.12 0.12 0.11 0.10 0.07 0.06 0.06 0.08 0.08 0.07 0.03 0.01 0.01 0.01 0.01 0.00 0.01 0.01 0.01 0.01 0.01
0.04 0.05 0.09 0.15 0.24 0.26 0.29 0.37 0.45 0.43 0.40 0.35 0.31 0.27 0.23 0.20 0.21 0.19 0.18 0.17 0.14 0.11 0.10 0.10 0.10 0.10 0.08 0.06 0.05 0.04 0.05 0.06 0.04 0.02 0.01 0.01 0.01 0.01 0.01 0.01 0.01 0.01 0.02
0.05 0.07 0.11 0.18 0.25 0.26 0.30 0.37 0.41 0.44 0.44 0.40 0.37 0.32 0.27 0.21 0.19 0.18 0.17 0.17 0.14 0.11 0.09 0.08 0.08 0.07 0.06 0.06 0.05 0.04 0.04 0.04 0.04 0.04 0.03 0.01 0.01 0.01 0.01 0.01 0.01 0.02 0.02
0.04 0.06 0.08 0.15 0.17 0.19 0.22 0.28 0.30 0.33 0.35 0.34 0.31 0.28 0.23 0.18 0.14 0.12 0.10 0.09 0.08 0.08 0.09 0.08 0.07 0.06 0.06 0.06 0.06 0.05 0.04 0.04 0.04 0.03 0.03 0.02 0.02 0.01 0.01 0.01 0.01 0.01 0.01
MSLP
1011.20 1011.32 1011.66 1012.17 1012.73 1013.26 1013.68 1013.96 1014.11 1014.18 1014.24 1014.36 1014.58 1014.91 1015.32 1015.77 1016.19 1016.53 1016.75 1016.87 1016.90 1016.89 1016.87 1016.89 1016.96 1017.07 1017.20 1017.33 1017.43 1017.49 1017.51 1017.53 1017.56 1017.63 1017.75 1017.91 1018.11 1018.31 1018.49 1018.63 1018.72 1018.78 1018.82
1011.01 1011.23 1011.66 1012.23 1012.85 1013.41 1013.85 1014.14 1014.30 1014.38 1014.46 1014.60 1014.84 1015.18 1015.60 1016.04 1016.44 1016.75 1016.93 1017.00 1016.99 1016.96 1016.95 1017.00 1017.11 1017.28 1017.47 1017.64 1017.75 1017.81 1017.82 1017.80 1017.80 1017.85 1017.96 1018.13 1018.35 1018.59 1018.81 1018.97 1019.08 1019.13 1019.15
1010.62 1010.95 1011.48 1012.13 1012.82 1013.44 1013.93 1014.27 1014.48 1014.61 1014.72 1014.89 1015.14 1015.49 1015.88 1016.28 1016.63 1016.87 1017.00 1017.03 1017.00 1016.98 1017.00 1017.10 1017.28 1017.51 1017.75 1017.94 1018.06 1018.10 1018.07 1018.00 1017.95 1017.96 1018.05 1018.23 1018.47 1018.74 1018.99 1019.19 1019.32 1019.38 1019.39
1010.15 1010.59 1011.21 1011.95 1012.71 1013.39 1013.96 1014.36 1014.64 1014.83 1014.99 1015.19 1015.45 1015.78 1016.13 1016.48 1016.76 1016.94 1017.03 1017.03 1017.01 1017.02 1017.10 1017.26 1017.50 1017.79 1018.06 1018.26 1018.36 1018.35 1018.27 1018.14 1018.03 1018.00 1018.06 1018.23 1018.49 1018.78 1019.07 1019.30 1019.46 1019.55 1019.57
1009.74 1010.26 1010.96 1011.76 1012.58 1013.32 1013.94 1014.42 1014.76 1015.01 1015.22 1015.45 1015.71 1016.02 1016.33 1016.63 1016.85 1017.00 1017.06 1017.07 1017.09 1017.15 1017.29 1017.52 1017.82 1018.14 1018.41 1018.60 1018.66 1018.59 1018.43 1018.24 1018.07 1017.99 1018.03 1018.20 1018.46 1018.77 1019.08 1019.35 1019.54 1019.65 1019.70
1009.50 1010.08 1010.82 1011.65 1012.49 1013.26 1013.92 1014.44 1014.83 1015.13 1015.38 1015.63 1015.90 1016.19 1016.47 1016.73 1016.93 1017.06 1017.13 1017.18 1017.25 1017.38 1017.59 1017.88 1018.22 1018.54 1018.80 1018.93 1018.93 1018.79 1018.56 1018.31 1018.09 1017.98 1018.01 1018.17 1018.44 1018.77 1019.10 1019.38 1019.60 1019.73 1019.80
1009.48 1010.08 1010.82 1011.63 1012.46 1013.23 1013.89 1014.43 1014.85 1015.18 1015.46 1015.73 1016.00 1016.28 1016.55 1016.79 1016.98 1017.13 1017.24 1017.35 1017.48 1017.68 1017.96 1018.28 1018.63 1018.93 1019.14 1019.22 1019.14 1018.93 1018.64 1018.34 1018.10 1017.99 1018.01 1018.19 1018.47 1018.80 1019.14 1019.44 1019.66 1019.80 1019.89
1009.65 1010.23 1010.93 1011.70 1012.48 1013.21 1013.84 1014.38 1014.80 1015.15 1015.45 1015.73 1016.01 1016.29 1016.56 1016.80 1017.01 1017.19 1017.35 1017.52 1017.72 1017.98 1018.30 1018.64 1018.97 1019.23 1019.37 1019.37 1019.22 1018.96 1018.63 1018.32 1018.09 1017.99 1018.05 1018.24 1018.54 1018.89 1019.23 1019.52 1019.73 1019.87 1019.95
1009.90 1010.44 1011.08 1011.78 1012.49 1013.16 1013.75 1014.26 1014.69 1015.05 1015.37 1015.66 1015.95 1016.23 1016.51 1016.76 1016.99 1017.20 1017.41 1017.63 1017.89 1018.18 1018.51 1018.84 1019.13 1019.33 1019.41 1019.34 1019.13 1018.84 1018.51 1018.22 1018.03 1017.98 1018.08 1018.32 1018.65 1019.00 1019.34 1019.61 1019.80 1019.92 1019.98
1010.10 1010.59 1011.17 1011.79 1012.42 1013.03 1013.59 1014.08 1014.51 1014.88 1015.22 1015.53 1015.83 1016.12 1016.40 1016.67 1016.91 1017.14 1017.38 1017.63 1017.91 1018.22 1018.53 1018.83 1019.07 1019.21 1019.22 1019.10 1018.87 1018.57 1018.27 1018.03 1017.90 1017.92 1018.09 1018.38 1018.74 1019.10 1019.43 1019.68 1019.85 1019.93 1019.96
1010.13 1010.59 1011.10 1011.67 1012.24 1012.81 1013.34 1013.83 1014.27 1014.66 1015.03 1015.36 1015.68 1015.98 1016.26 1016.52 1016.76 1016.99 1017.23 1017.49 1017.77 1018.06 1018.35 1018.61 1018.80 1018.88 1018.85 1018.70 1018.47 1018.19 1017.94 1017.76 1017.71 1017.81 1018.05 1018.39 1018.77 1019.15 1019.47 1019.70 1019.83 1019.88 1019.88
1009.98 1010.40 1010.88 1011.40 1011.95 1012.49 1013.02 1013.52 1013.99 1014.42 1014.82 1015.19 1015.52 1015.83 1016.10 1016.34 1016.56 1016.78 1016.99 1017.23 1017.48 1017.75 1018.00 1018.22 1018.38 1018.43 1018.38 1018.23 1018.01 1017.79 1017.59 1017.49 1017.52 1017.68 1017.97 1018.34 1018.74 1019.11 1019.42 1019.63 1019.74 1019.76 1019.74
1009.66 1010.07 1010.54 1011.05 1011.58 1012.13 1012.68 1013.21 1013.71 1014.19 1014.63 1015.02 1015.37 1015.68 1015.93 1016.15 1016.34 1016.52 1016.70 1016.90 1017.13 1017.36 1017.59 1017.79 1017.92 1017.97 1017.92 1017.80 1017.63 1017.45 1017.33 1017.29 1017.37 1017.58 1017.89 1018.27 1018.66 1019.02 1019.30 1019.49 1019.58 1019.59 1019.56
1009.30 1009.71 1010.18 1010.69 1011.23 1011.80 1012.37 1012.94 1013.49 1014.00 1014.47 1014.89 1015.25 1015.55 1015.79 1015.97 1016.13 1016.27 1016.42 1016.59 1016.79 1017.00 1017.22 1017.41 1017.55 1017.61 1017.60 1017.52 1017.41 1017.30 1017.23 1017.24 1017.35 1017.57 1017.88 1018.23 1018.59 1018.91 1019.16 1019.32 1019.40 1019.41 1019.38
1009.04 1009.45 1009.91 1010.43 1010.99 1011.57 1012.17 1012.76 1013.34 1013.89 1014.38 1014.81 1015.17 1015.46 1015.67 1015.83 1015.95 1016.07 1016.19 1016.35 1016.53 1016.75 1016.97 1017.17 1017.34 1017.45 1017.49 1017.47 1017.42 1017.37 1017.35 1017.40 1017.52 1017.73 1017.99 1018.30 1018.59 1018.86 1019.06 1019.19 1019.25 1019.27 1019.25
1009.01 1009.40 1009.85 1010.36 1010.91 1011.50 1012.11 1012.71 1013.31 1013.86 1014.36 1014.78 1015.13 1015.40 1015.59 1015.74 1015.85 1015.95 1016.07 1016.23 1016.42 1016.65 1016.89 1017.13 1017.34 1017.50 1017.60 1017.65 1017.67 1017.68 1017.71 1017.78 1017.90 1018.08 1018.30 1018.53 1018.76 1018.95 1019.09 1019.18 1019.23 1019.24 1019.24
1009.26 1009.61 1010.03 1010.51 1011.03 1011.60 1012.19 1012.79 1013.36 1013.90 1014.38 1014.79 1015.12 1015.37 1015.55 1015.69 1015.80 1015.91 1016.05 1016.22 1016.44 1016.70 1016.97 1017.24 1017.50 1017.71 1017.87 1017.99 1018.08 1018.16 1018.24 1018.34 1018.47 1018.63 1018.80 1018.98 1019.13 1019.25 1019.33 1019.37 1019.38 1019.38 1019.39
1009.77 1010.06 1010.41 1010.83 1011.30 1011.83 1012.38 1012.93 1013.48 1013.99 1014.43 1014.81 1015.12 1015.35 1015.53 1015.67 1015.80 1015.94 1016.11 1016.31 1016.56 1016.85 1017.15 1017.46 1017.74 1018.00 1018.22 1018.40 1018.56 1018.71 1018.85 1019.00 1019.16 1019.32 1019.48 1019.61 1019.71 1019.77 1019.79 1019.78 1019.76 1019.74 1019.74
1010.46 1010.64 1010.90 1011.24 1011.64 1012.10 1012.59 1013.10 1013.60 1014.07 1014.48 1014.83 1015.12 1015.34 1015.53 1015.69 1015.85 1016.02 1016.23 1016.47 1016.75 1017.06 1017.38 1017.69 1018.00 1018.28 1018.54 1018.78 1019.00 1019.22 1019.44 1019.67 1019.89 1020.10 1020.27 1020.40 1020.48 1020.50 1020.47 1020.42 1020.35 1020.30 1020.28
1011.20 1011.27 1011.41 1011.64 1011.95 1012.34 1012.77 1013.23 1013.69 1014.13 1014.51 1014.84 1015.12 1015.35 1015.55 1015.74 1015.93 1016.15 1016.39 1016.67 1016.97 1017.28 1017.60 1017.91 1018.21 1018.49 1018.77 1019.05 1019.33 1019.63 1019.95 1020.27 1020.58 1020.86 1021.09 1021.26 1021.35 1021.36 1021.31 1021.22 1021.11 1021.02 1020.96
1011.89 1011.83 1011.85 1011.97 1012.19 1012.50 1012.88 1013.30 1013.74 1014.15 1014.53 1014.86 1015.15 1015.39 1015.62 1015.84 1016.07 1016.33 1016.61 1016.90 1017.21 1017.52 1017.82 1018.10 1018.37 1018.63 1018.91 1019.21 1019.54 1019.91 1020.31 1020.74 1021.15 1021.54 1021.86 1022.09 1022.22 1022.25 1022.20 1022.09 1021.95 1021.82 1021.72
1012.47 1012.28 1012.18 1012.19 1012.32 1012.57 1012.91 1013.32 1013.75 1014.18 1014.57 1014.93 1015.24 1015.52 1015.78 1016.04 1016.31 1016.59 1016.90 1017.20 1017.51 1017.79 1018.06 1018.29 1018.52 1018.75 1019.00 1019.30 1019.66 1020.08 1020.56 1021.07 1021.59 1022.07 1022.49 1022.79 1022.98 1023.05 1023.02 1022.90 1022.75 1022.59 1022.46
1012.96 1012.65 1012.44 1012.35 1012.41 1012.62 1012.94 1013.35 1013.80 1014.26 1014.70 1015.10 1015.45 1015.77 1016.07 1016.37 1016.67 1016.98 1017.30 1017.60 1017.89 1018.15 1018.37 1018.55 1018.72 1018.90 1019.12 1019.39 1019.75 1020.20 1020.72 1021.30 1021.89 1022.45 1022.93 1023.31 1023.55 1023.66 1023.65 1023.55 1023.39 1023.23 1023.08
1013.41 1013.02 1012.72 1012.56 1012.56 1012.74 1013.06 1013.49 1013.98 1014.49 1014.98 1015.43 1015.84 1016.20 1016.54 1016.87 1017.19 1017.51 1017.83 1018.13 1018.39 1018.62 1018.80 1018.94 1019.05 1019.18 1019.35 1019.59 1019.92 1020.35 1020.87 1021.46 1022.07 1022.66 1023.17 1023.58 1023.86 1024.00 1024.01 1023.93 1023.79 1023.64 1023.50
1013.94 1013.49 1013.13 1012.92 1012.89 1013.05 1013.38 1013.83 1014.37 1014.93 1015.47 1015.98 1016.43 1016.83 1017.19 1017.53 1017.86 1018.18 1018.49 1018.77 1019.02 1019.21 1019.36 1019.46 1019.53 1019.61 1019.73 1019.92 1020.20 1020.58 1021.06 1021.60 1022.18 1022.74 1023.24 1023.63 1023.91 1024.06 1024.09 1024.03 1023.91 1023.78 1023.67
1014.60 1014.14 1013.75 1013.52 1013.47 1013.63 1013.97 1014.45 1015.02 1015.62 1016.20 1016.74 1017.22 1017.64 1018.01 1018.35 1018.66 1018.96 1019.24 1019.50 1019.72 1019.90 1020.02 1020.10 1020.15 1020.19 1020.27 1020.40 1020.61 1020.92 1021.31 1021.77 1022.26 1022.74 1023.17 1023.52 1023.75 1023.88 1023.91 1023.87 1023.78 1023.68 1023.60
Thickness
5808 5803 5790 5787 5785 5783 5782 5781 5779 5778 5775 5773 5771 5769 5768 5766 5764 5762 5761 5760 5759 5758 5757 5756 5755 5754 5753 5753 5751 5751 5750 5749 5747 5746 5744 5743 5741 5740 5739 5738 5738 5738 5733
5809 5801 5789 5785 5783 5781 5779 5778 5776 5775 5773 5770 5768 5766 5764 5762 5761 5759 5758 5757 5756 5755 5754 5753 5752 5751 5750 5749 5748 5747 5746 5745 5744 5743 5742 5741 5739 5737 5736 5735 5736 5736 5730
5806 5798 5788 5784 5781 5779 5777 5775 5773 5771 5769 5767 5765 5763 5761 5759 5757 5756 5755 5754 5753 5752 5751 5750 5749 5748 5747 5746 5745 5744 5743 5742 5742 5741 5742 5744 5739 5734 5733 5732 5731 5729 5727
5802 5794 5788 5781 5779 5777 5774 5772 5770 5768 5766 5763 5761 5759 5757 5755 5754 5753 5752 5751 5750 5749 5748 5747 5746 5744 5743 5742 5742 5741 5740 5740 5739 5741 5745 5744 5740 5732 5730 5729 5728 5726 5725
5797 5792 5785 5779 5776 5774 5772 5770 5767 5765 5763 5760 5758 5756 5754 5752 5751 5749 5749 5748 5747 5745 5744 5743 5742 5741 5740 5739 5739 5738 5737 5737 5738 5741 5746 5743 5738 5730 5728 5726 5725 5723 5722
5794 5790 5783 5776 5773 5771 5768 5766 5764 5762 5759 5757 5755 5752 5750 5749 5748 5746 5745 5745 5744 5742 5741 5740 5739 5738 5737 5736 5735 5735 5735 5736 5738 5745 5742 5741 5738 5729 5726 5725 5723 5721 5720
5792 5789 5781 5774 5770 5768 5765 5763 5760 5758 5756 5754 5751 5749 5747 5746 5745 5743 5742 5741 5741 5740 5738 5737 5736 5735 5734 5733 5733 5732 5733 5735 5741 5744 5741 5740 5736 5728 5725 5723 5721 5720 5718
5791 5787 5778 5770 5768 5764 5761 5759 5757 5754 5752 5750 5747 5746 5744 5742 5742 5741 5739 5738 5737 5737 5735 5734 5733 5732 5732 5731 5731 5730 5731 5732 5738 5741 5739 5737 5730 5726 5723 5721 5720 5718 5716
5789 5785 5776 5770 5765 5761 5757 5754 5752 5750 5748 5746 5744 5742 5740 5739 5739 5738 5736 5735 5735 5734 5733 5731 5730 5730 5729 5729 5729 5729 5729 5732 5738 5740 5738 5735 5728 5724 5721 5719 5718 5716 5714
5786 5782 5777 5771 5766 5760 5755 5750 5748 5745 5744 5742 5740 5738 5737 5736 5735 5734 5734 5732 5731 5731 5730 5729 5728 5728 5727 5727 5727 5727 5728 5730 5739 5740 5738 5733 5726 5722 5720 5718 5716 5714 5712
5780 5779 5776 5772 5766 5762 5757 5749 5744 5741 5739 5737 5735 5734 5734 5735 5735 5732 5732 5729 5729 5728 5728 5727 5726 5725 5725 5726 5726 5726 5727 5735 5740 5738 5735 5728 5723 5720 5718 5716 5714 5712 5710
5773 5774 5775 5770 5765 5762 5757 5749 5745 5742 5738 5737 5735 5733 5734 5736 5735 5734 5729 5727 5726 5726 5725 5724 5724 5723 5725 5730 5728 5726 5733 5735 5738 5736 5732 5724 5720 5718 5716 5714 5712 5710 5708
5772 5770 5771 5767 5763 5760 5756 5750 5746 5743 5739 5737 5736 5733 5733 5733 5732 5731 5729 5725 5725 5724 5726 5724 5724 5728 5730 5732 5732 5733 5733 5735 5735 5734 5729 5721 5717 5715 5713 5712 5710 5708 5706
5769 5767 5767 5764 5759 5756 5753 5749 5746 5742 5738 5737 5733 5732 5730 5730 5729 5730 5729 5729 5728 5728 5727 5728 5728 5728 5728 5728 5729 5730 5730 5730 5730 5729 5723 5718 5714 5712 5711 5709 5708 5706 5704
5764 5762 5761 5760 5755 5750 5747 5745 5743 5738 5736 5734 5730 5728 5728 5728 5727 5727 5727 5726 5727 5727 5725 5725 5726 5725 5725 5725 5726 5725 5725 5724 5724 5723 5719 5714 5711 5709 5708 5706 5705 5703 5701
5758 5757 5757 5755 5752 5746 5742 5740 5739 5735 5731 5729 5726 5724 5723 5723 5724 5723 5722 5721 5723 5722 5722 5722 5722 5721 5721 5721 5721 5719 5718 5718 5716 5715 5715 5711 5707 5705 5704 5703 5701 5700 5698
5752 5751 5749 5748 5746 5742 5738 5735 5733 5729 5726 5724 5721 5720 5719 5718 5718 5718 5718 5716 5717 5717 5716 5716 5716 5716 5716 5715 5714 5713 5712 5710 5710 5709 5709 5708 5706 5701 5700 5698 5697 5695 5693
5746 5744 5743 5743 5740 5737 5734 5730 5728 5724 5722 5719 5716 5715 5715 5713 5712 5713 5713 5713 5711 5712 5712 5712 5711 5710 5709 5709 5708 5708 5706 5703 5702 5702 5703 5703 5701 5698 5694 5691 5690 5688 5687
5736 5736 5735 5736 5733 5731 5728 5724 5722 5719 5716 5714 5710 5708 5708 5708 5707 5707 5707 5707 5706 5707 5707 5707 5705 5704 5702 5701 5700 5699 5699 5698 5696 5696 5695 5695 5692 5690 5688 5684 5682 5680 5678
5727 5728 5728 5728 5727 5725 5722 5719 5715 5713 5710 5708 5705 5702 5702 5702 5701 5701 5701 5699 5700 5701 5700 5699 5697 5697 5697 5695 5695 5692 5690 5689 5688 5687 5687 5685 5683 5682 5680 5678 5675 5671 5668
5717 5718 5720 5719 5719 5717 5714 5711 5708 5705 5702 5700 5697 5696 5696 5695 5694 5695 5695 5694 5694 5694 5693 5692 5690 5689 5689 5688 5687 5683 5681 5680 5678 5677 5676 5676 5674 5672 5670 5668 5666 5663 5660
5707 5709 5711 5711 5711 5710 5708 5705 5702 5699 5694 5692 5690 5689 5689 5689 5687 5688 5688 5687 5686 5685 5684 5684 5683 5683 5682 5681 5681 5678 5673 5670 5667 5667 5666 5664 5663 5662 5660 5657 5654 5652 5650
5698 5699 5702 5702 5702 5701 5700 5697 5694 5691 5687 5682 5680 5680 5681 5680 5679 5679 5679 5679 5678 5678 5677 5676 5676 5675 5674 5673 5674 5673 5669 5665 5660 5656 5654 5653 5652 5650 5648 5645 5642 5640 5638
5687 5690 5691 5692 5693 5692 5691 5688 5687 5684 5680 5675 5672 5671 5671 5671 5670 5669 5670 5669 5668 5669 5668 5668 5668 5668 5667 5665 5663 5663 5663 5663 5657 5648 5645 5643 5641 5638 5636 5634 5631 5628 5626
5678 5680 5682 5683 5682 5683 5682 5681 5678 5675 5670 5666 5663 5661 5660 5660 5659 5659 5659 5658 5658 5658 5658 5657 5657 5658 5658 5657 5656 5654 5652 5650 5650 5646 5640 5634 5631 5628 5625 5622 5620 5618 5615
5667 5669 5671 5672 5672 5672 5672 5670 5668 5664 5660 5656 5653 5650 5648 5648 5647 5647 5647 5647 5647 5647 5646 5646 5646 5646 5645 5644 5644 5643 5642 5641 5638 5636 5632 5625 5622 5618 5614 5611 5610 5607 5604